Showing default

COSMOS 2146, 21302

Orbit data source: Space-Track

COSMOS 2146, 21302 is a payload satellite owned by UNKS RF (CIS) in LEO that was launched on Thu, 16 May 1991 UTC via a TSIKLON-3 launch vehicle from the Plesetsk Missile And Space Complex (PKMTR). Payload-class satellites include a variety of spacecraft equipped with specific instruments for various scientific and technological missions. These include communications satellites like Starlink; space stations such as the ISS; scientific satellites like the Hubble; Earth observation satellites from companies like Planet Labs, Umbra, and HawkEye 360; GPS; miniature CubeSats for education and research; and military/defense satellites.

Loading next visibility...
Identifier
21302, 1991-033D
Orbit
LEO
Country
Flag of CISCIS
Related business
Manufacturer
NPO PM
Mission
Defense Communications
Bus & Motor
STRELA-3, Unknown motor
Mass
225 kg wet, 225 kg dry
Launch date (UTC)
1991-05-16 (35 years ago)
Launch vehicle
TSIKLON-3
Launch site
Plesetsk Missile And Space Complex (PKMTR)
Object type
Payload
Rocket body
Debris
Shape & HBR
Cyl, 0.8 m
Radar Cross Section
1.257 m², Large (>1 m²)

Expand to show TLE details & history
Last TLE update: 2 days ago

TLE from 2 days ago
0 COSMOS 2146
1 21302U 91033D   26171.37230932  .00000034  00000-0  12735-3 0  9998
2 21302  82.5762 292.3364 0016221  26.2861 333.9051 12.64553823619724
Epoch: 2026-06-20T08:56Z
TLE epoch observation values (Epoch: 2026-06-20T08:56:07.525Z)
Latitude
-0.00003°
Longitude
-110.28284°
Altitude
1,395.603 km
Speed
7.167 km/s
True Right ascension
19h 29m 20s
True Declination
0° 00' 00"
Sunlit
Object was in full shadow at epoch
Visualization orbit readout
Latitude
Unknown
Longitude
Unknown
Altitude
Unknown
Speed
Unknown
Apparent Right ascension
Unknown
Apparent Declination
Unknown
Sunlit
N/A
Visualization observer readout
Local Sidereal Time
02:13:16
Azimuth
Unknown
Elevation
Unknown
Doppler factor
Unknown
Orbital elements
Apogee altitude
1,414.142 km
Perigee altitude
1,388.903 km
Semi-major axis
7,779.659 km
Eccentricity
0.00162
Inclination
82.5762°
RAAN
292.3364°
Arg. of periapsis
26.2861°
True anomaly
333.82319°
Mean anomaly
333.9051°
Eccentric anomaly
333.86416°
Mean motion
3.16302 °/min
Orbital period
113.82 mins
BSTAR
0.00012735
Loading maneuver chart data...
Computing Atmospheric mass density...
Loading historical data...
Loading historical data...
Loading historical data...
Loading historical data...
Loading historical data...
Loading historical data...
Loading historical data...

Documentation

Showing up to 5 results
|